Terug naar catalogus

FENGYUN 1C DEB

ActiefPO
NORAD 37478·DEBRIS·🇨🇳 China

Gelanceerd May 10, 1999 vanaf Taiyuan Satellite Launch Center

Loading…

Volgende Passages (komende 24 uur)

TLE

VersSource: Space-Track

Epoch: Sep 14, 2026, 02:55 UTC

1 37478U 99025EJY 26257.12156040  .00002383  00000-0  36983-2 0  9992
2 37478  99.6550 216.5532 0548904  44.5644 319.8272 13.03848435601497

Volg FENGYUN 1C DEB in realtime met AllMySat

Download on the App Store